Regional Weather Roundup
Issued by NWS New Orleans/Baton Rouge, LA

Home | Current Version | Previous Version | Text Only | Print | Product List | Glossary On
Versions: 1 2 3 4 5 6 7 8 9 10 11 12 13 14 15 16 17 18 19 20 21 22 23 24 25 26 27 28 29 30 31 32 33 34 35 36 37 38 39 40 41 42 43 44 45 46 47 48 49 50
000
ASUS44 KLIX 290611
RWRLIX
NEW ORLEANS REGIONAL WEATHER ROUNDUP
NATIONAL WEATHER SERVICE NEW ORLEANS LA
100 AM CDT SUN MAR 29 2015

NOTE: "FAIR" INDICATES FEW OR NO CLOUDS BELOW 12,000 FEET WITH NO
      SIGNIFICANT WEATHER AND/OR OBSTRUCTIONS TO VISIBILITY.
      SKY/WX - SKY CONDITION AND SIGNIFICANT WEATHER.
      TMP - AIR TEMPERATURE.     DP    - DEWPOINT TEMPERATURE.
      RH  - RELATIVE HUMIDITY.   PRES  - PRESSURE.
      HI  - HEAT INDEX.          WCI   - WIND CHILL INDEX.

*  THESE STATIONS ARE NOT NWS OR FAA STATIONS AND ARE NOT UNDER
   NWS QUALITY CONTROL.

LAZ038-040-048-061>063-065>067-069-290700-
SOUTHEAST LOUISIANA

CITY           SKY/WX    TMP DP  RH WIND       PRES   REMARKS
N.O. AUDUBON     N/A     59  57  93 MISG        N/A
6HR MIN TEMP:  58; 6HR MAX TEMP:  63;

N.O. INTL ARPT CLEAR     58  49  72 SE7       30.23S
6HR MIN TEMP:  57; 6HR MAX TEMP:  64;

N.O. LAKEFRONT CLEAR     60  51  72 SE9       30.24S
6HR MIN TEMP:  59; 6HR MAX TEMP:  64;

SLIDELL        CLEAR     51  50  96 NE3       30.24S
6HR MIN TEMP:  49; 6HR MAX TEMP:  62;

BATON ROUGE    CLEAR     53  49  86 E5        30.22R
6HR MIN TEMP:  53; 6HR MAX TEMP:  69;

BOOTHVILLE     CLEAR     57  52  83 E5        30.25S
6HR MIN TEMP:  57; 6HR MAX TEMP:  60;

BELLE CHASSE   CLEAR     57  51  80 SE5       30.23S
6HR MIN TEMP:  56; 6HR MAX TEMP:  60;

BOGALUSA*        N/A     53  38  58 E8        30.28R
6HR MIN TEMP:  53; 6HR MAX TEMP:  68;

GALLIANO*      CLEAR     62  57  84 CALM      30.23S
6HR MIN TEMP:  58; 6HR MAX TEMP:  64;

NEW ROADS*       N/A     56  50  82 SE3       30.21S
6HR MIN TEMP:  56; 6HR MAX TEMP:  70;

GONZALES*        N/A     56  53  91 CALM      30.22S
6HR MIN TEMP:  55; 6HR MAX TEMP:  66;

HAMMOND*       CLEAR     55  48  76 CALM      30.25S
HOUMA*         CLEAR     53  52  97 NE3       30.23R
6HR MIN TEMP:  53; 6HR MAX TEMP:  62;

PORT FOURCHON* CLEAR     66  59  77 SE9       30.25S

$$

MSZ070-080>082-290700-
SOUTHERN MISSISSIPPI

CITY           SKY/WX    TMP DP  RH WIND       PRES   REMARKS
MCCOMB         PTCLDY    50  37  61 VRB5      30.25R
6HR MIN TEMP:  50; 6HR MAX TEMP:  64;

GULFPORT       PTCLDY    51  42  71 NE7       30.27R
6HR MIN TEMP:  51; 6HR MAX TEMP:  60;

BILOXI         CLEAR     51  41  68 E9        30.28R
6HR MIN TEMP:  51; 6HR MAX TEMP:  59;

PASCAGOULA     CLEAR     47  38  71 NE5       30.30R
6HR MIN TEMP:  47; 6HR MAX TEMP:  58;


$$

COASTAL OBSERVATIONS
LAKE AND NEARSHORE STATIONS

STATION/POSITION TIME  TEMP    WIND        PRES    WAVE
                       AIR SEA DIR/SP/G            HT/PER
                 (UTC) (F)     (DEG/KT/KT) (MB)    (FT/S)
PASCAGOULA       0500   53      60/ 11/ 14 1024.7
WAVELAND YACHT   0500   62 65   70/  6/  8 1024.3
GRAND ISLE       0500   63 67  120/  5/ 12 1023.2
SOUTHWEST PASS   0500   62 53  120/ 12/ 13 1024.2
NEW CANAL        0500   58     150/  3/  6 1024.1
SHELL BEACH      0500   59 68  130/  8/ 11 1023.9

OFFSHORE STATIONS

STATION/POSITION TIME  TEMP    WIND        PRES    WAVE
                       AIR SEA DIR/SP/G            HT/PER
                 (UTC) (F)     (DEG/KT/KT) (MB)    (FT/S)
64 S DAUPHIN ISL 0550   62 71  100/  6/  8 1025.1    1/ 4

$$




USA.gov is the U.S. government's official web portal to all federal, state and local government web resources and services.